Theta_e
333 334 334 331 331 330 332 333 332 333 334 336 336 336 335 336 335 336 334 331 332 334 334 334 332 332 333 332 332 332 332 332 331 331 331 332 332 332 332 332 332 332 333 334 336 336 336 335 336 335 334 332 332 331 329 330 329 328 328 326 325 327 329 330 331 332 333 335 335 335 335 334 333 332 331 331 330 331 331 332 333 333 333 333 334
334 334 333 330 330 330 329 330 331 333 334 335 336 336 335 336 335 335 331 329 333 334 334 332 330 332 334 332 331 331 331 331 331 331 331 331 332 332 332 332 332 332 332 333 335 336 335 335 335 334 332 330 330 330 330 330 329 328 329 329 327 326 327 329 330 330 331 332 333 334 334 335 334 332 332 332 330 331 331 331 331 331 331 331 332
332 333 330 328 327 326 326 328 332 334 336 336 336 336 336 336 336 336 332 329 333 333 333 334 333 333 334 334 333 331 332 331 331 330 331 331 331 331 331 331 331 332 331 331 333 334 334 334 335 334 333 330 331 332 332 332 330 329 330 331 330 328 328 329 329 330 331 331 331 332 332 333 333 332 332 332 331 331 332 331 331 332 332 330 330
331 331 329 329 327 323 323 329 333 333 336 336 336 336 336 336 336 337 334 331 333 333 332 334 334 333 333 334 333 333 333 332 331 331 331 331 331 331 331 331 331 331 331 331 331 332 332 333 333 333 331 331 332 332 332 331 331 331 332 332 331 330 330 329 330 330 331 331 331 331 331 331 332 331 331 330 330 331 331 331 332 332 331 330 329
331 330 329 330 327 321 322 328 330 332 335 336 336 336 337 336 336 336 334 333 334 335 334 333 333 333 332 332 332 333 333 332 332 332 331 331 331 331 331 331 331 331 331 331 330 330 331 332 332 331 330 330 331 331 330 330 331 332 332 332 331 330 330 330 331 331 331 330 330 330 331 331 331 331 331 330 330 331 331 331 330 331 330 329 328
331 330 330 328 324 322 322 326 330 332 335 335 335 336 337 336 336 335 334 333 333 334 334 333 332 332 332 332 333 333 333 333 332 331 330 330 331 331 331 331 331 331 331 331 330 329 330 331 331 330 330 331 330 330 330 330 331 332 332 331 330 330 330 331 331 330 330 330 330 330 331 331 331 331 331 330 330 330 330 330 329 329 329 328 327
330 331 330 328 325 321 319 325 331 333 335 335 334 335 336 336 336 335 334 332 332 334 333 332 331 331 332 331 333 334 333 333 332 332 331 330 331 330 330 331 331 331 331 332 331 329 329 331 331 330 330 330 330 330 330 330 331 331 331 331 330 330 330 330 329 328 328 328 329 329 330 330 330 330 330 329 329 329 329 328 328 328 326 325 325
330 332 330 328 326 321 318 323 330 333 334 335 335 335 336 336 336 335 334 334 332 332 333 332 331 331 331 331 332 334 333 332 332 333 332 331 331 331 331 331 331 331 331 331 331 329 328 331 331 330 330 330 330 330 330 330 330 330 330 330 330 329 329 329 327 326 326 327 328 328 328 328 329 329 329 328 328 327 327 327 326 325 324 323 323
331 332 330 328 325 321 319 319 327 332 334 335 334 334 335 336 336 336 335 335 332 331 333 332 332 332 331 330 332 333 333 332 332 332 331 331 331 331 331 330 330 330 330 330 330 328 329 330 330 329 329 329 330 330 330 330 329 329 329 329 329 329 328 327 326 327 327 327 328 328 328 328 328 328 327 328 327 326 325 324 324 323 324 323 323
331 332 331 329 325 321 319 317 321 328 331 333 334 334 334 336 335 335 335 335 333 332 333 331 330 330 330 330 331 333 333 332 331 331 332 331 330 329 329 329 328 328 328 329 329 328 329 330 330 329 329 329 329 329 329 329 329 328 328 328 328 328 327 326 327 327 327 327 327 328 328 328 328 327 326 326 326 325 324 324 324 324 324 324 323
331 333 331 328 325 321 319 318 318 321 326 330 333 333 334 335 335 335 334 334 334 334 333 329 327 327 329 330 330 330 331 331 331 331 331 330 328 327 328 328 328 328 328 328 328 327 329 330 329 328 328 328 328 329 329 329 329 328 328 328 327 327 326 327 327 327 327 327 327 328 328 328 328 327 324 324 325 324 324 325 325 325 325 324 322
330 332 331 329 326 321 319 319 318 319 323 327 331 333 333 335 335 335 334 334 335 333 331 328 326 326 328 330 329 328 330 330 330 331 331 330 329 327 328 329 329 329 328 327 327 327 329 329 327 328 328 328 328 328 328 328 328 328 327 327 327 327 327 326 326 326 326 326 327 327 327 326 326 326 324 324 325 324 324 325 325 325 324 323 322
330 331 331 329 326 322 319 319 319 319 321 324 328 332 332 333 335 334 334 334 335 333 330 328 327 326 327 329 329 328 329 330 331 331 331 330 329 328 329 329 329 329 329 328 327 326 328 328 326 326 327 328 328 328 328 327 327 327 326 326 326 326 326 326 325 326 326 326 326 325 325 325 324 325 325 325 325 324 323 323 322 323 323 322 322
331 330 332 329 327 324 320 319 320 319 320 321 326 332 332 332 333 333 334 334 334 333 330 328 327 327 327 329 329 329 329 330 331 330 330 329 328 329 329 329 329 329 329 329 327 326 326 327 327 326 326 328 328 327 327 327 327 326 326 326 325 325 324 324 323 323 324 324 323 322 323 325 325 324 324 324 324 324 323 321 320 320 320 320 320
332 330 332 330 328 325 321 320 319 320 320 320 323 329 331 331 333 333 333 333 333 332 329 328 326 326 328 328 329 328 329 329 328 328 329 329 329 329 328 327 328 328 328 328 327 326 325 325 326 325 325 327 327 327 327 327 326 326 325 325 325 324 323 322 320 318 319 320 319 319 320 323 324 323 323 322 322 322 321 321 320 319 319 319 319
333 330 332 331 329 326 323 321 320 320 320 320 320 322 324 326 331 332 332 331 331 330 329 328 324 325 328 329 328 327 327 326 326 328 329 329 329 328 327 327 328 328 328 327 327 326 324 324 324 324 325 327 327 327 326 326 325 325 325 324 324 323 322 321 320 316 314 316 315 315 319 323 323 323 322 322 321 321 320 320 319 319 319 319 319
333 330 331 331 330 327 324 323 322 321 320 321 320 320 320 321 326 328 327 327 327 326 327 325 321 322 325 326 327 327 327 327 327 328 328 328 327 326 326 327 327 327 327 327 327 327 324 324 324 325 326 326 326 326 325 325 324 324 323 323 323 322 322 321 321 316 311 311 311 311 317 321 322 322 321 321 320 320 319 319 318 318 318 318 318
333 329 331 332 331 329 326 325 323 322 321 321 321 320 319 320 321 321 321 322 322 322 321 320 318 320 321 323 325 326 328 328 329 328 327 326 326 325 325 326 326 326 326 327 327 327 325 324 325 325 326 326 326 325 324 324 323 323 323 323 322 322 322 321 321 316 309 310 311 314 319 321 322 322 321 320 320 319 318 318 317 317 317 317 317
333 329 330 331 332 330 328 327 325 324 322 321 321 321 320 320 319 318 318 318 318 318 318 318 318 319 320 321 324 325 327 328 329 328 327 327 326 326 324 324 326 326 326 326 327 326 324 324 325 325 326 326 325 324 323 324 323 324 323 323 322 322 322 321 320 315 311 312 314 318 320 321 322 322 321 320 320 319 318 318 317 317 317 317 317
333 329 329 330 332 331 330 329 328 327 325 322 321 322 322 321 320 319 318 318 318 318 318 318 317 319 319 320 323 324 325 327 328 327 327 327 327 325 323 323 325 325 325 326 326 325 324 325 325 325 326 326 324 323 323 324 323 323 323 322 322 322 322 321 321 318 315 315 315 317 320 321 321 321 321 321 320 319 318 317 317 317 317 317 317
332 329 328 328 331 331 330 330 330 329 327 325 323 322 323 322 321 320 319 318 318 318 318 318 318 318 318 319 321 322 323 324 327 327 327 326 326 325 323 322 322 322 323 323 324 324 324 325 325 325 325 325 325 324 324 324 324 323 323 323 323 322 322 322 321 320 319 318 317 318 319 320 321 321 321 320 319 319 318 318 317 316 316 317 317
332 330 328 326 329 330 330 330 330 331 330 328 326 323 323 323 322 321 320 319 318 318 318 318 317 317 316 316 319 321 321 321 323 324 325 325 325 325 323 321 320 319 318 319 322 323 324 324 325 325 325 325 325 325 324 324 324 323 323 323 323 323 322 322 322 321 321 320 318 318 319 320 321 321 320 319 319 318 318 318 317 316 316 316 316
335 332 330 328 327 328 329 329 330 331 331 330 328 326 324 323 323 323 322 320 319 319 319 319 317 318 318 318 319 320 320 320 320 320 321 322 323 324 323 321 319 318 317 317 321 322 323 324 324 324 324 324 324 324 324 324 324 324 323 323 323 323 323 322 322 321 321 320 319 317 318 320 320 320 320 319 319 318 317 317 317 316 315 315 315
337 335 333 331 329 328 328 328 330 331 331 331 330 329 327 325 324 324 323 322 321 320 319 319 319 321 322 322 321 321 322 321 319 318 318 318 319 321 321 320 318 317 316 317 319 320 321 322 322 322 322 322 323 323 324 324 324 324 324 323 323 323 323 322 322 322 321 320 319 318 318 319 319 320 320 319 319 318 317 317 316 316 315 314 315
337 337 336 335 334 332 330 329 330 330 331 332 332 331 329 328 326 324 324 323 323 322 320 319 320 322 324 323 323 323 324 323 321 319 317 316 315 317 319 319 319 317 316 317 318 318 319 319 321 321 321 321 321 322 323 323 324 324 323 323 323 323 323 322 322 322 322 321 320 319 318 317 317 319 319 319 319 318 318 317 316 316 315 315 315
338 338 337 336 336 336 335 333 332 331 332 333 333 332 331 329 328 326 325 324 324 323 322 321 320 323 325 325 324 324 325 324 324 321 318 316 314 314 316 317 317 317 317 317 317 317 317 319 321 322 322 321 321 321 321 322 323 323 323 322 323 323 323 323 322 322 322 321 320 320 319 317 317 319 319 318 318 318 317 317 317 316 315 315 315
337 338 336 336 336 337 337 336 335 332 332 334 334 334 333 330 329 329 327 326 325 324 324 322 321 324 326 326 325 325 325 325 324 321 319 318 318 314 314 315 316 317 318 318 317 317 318 320 322 321 322 322 322 322 321 321 321 322 322 322 322 323 323 323 322 322 322 321 320 320 320 319 318 318 319 319 318 318 317 317 316 316 315 315 315
336 336 337 336 336 337 337 337 337 334 333 334 336 336 334 332 330 330 329 328 327 326 325 324 322 324 327 326 326 326 326 326 325 322 318 320 321 318 316 317 318 318 319 319 319 318 318 320 322 321 321 321 321 321 320 320 320 321 322 322 323 323 323 322 322 322 322 322 321 320 320 320 319 318 318 319 318 318 317 317 316 316 316 315 315
335 335 336 336 336 337 337 337 337 336 335 335 336 336 335 335 332 331 330 330 330 329 328 326 323 324 327 327 326 326 327 327 326 323 318 320 322 321 320 320 321 321 320 319 319 320 320 320 321 321 321 321 320 320 320 320 321 321 322 322 322 322 323 322 322 322 322 322 321 321 320 320 320 318 317 317 318 318 318 317 317 316 316 316 315
335 334 335 335 335 335 336 336 337 336 336 336 337 336 336 335 334 333 332 332 332 331 329 327 325 324 326 327 327 327 327 328 326 323 319 320 323 322 321 321 322 323 322 320 319 319 319 319 320 320 320 321 320 320 320 319 319 320 321 322 322 321 322 322 322 322 322 322 321 321 321 320 320 319 318 317 317 317 318 317 317 317 317 316 316
335 335 334 335 335 335 335 336 336 337 336 336 337 337 336 335 334 334 333 333 333 332 330 329 327 325 325 326 327 327 328 327 325 324 322 322 323 323 323 322 322 323 323 321 320 319 318 318 318 319 320 320 320 320 319 318 317 317 318 319 319 320 320 320 321 321 322 321 321 321 320 320 320 320 319 318 317 317 317 318 318 318 317 317 317
335 335 334 334 335 335 335 335 336 337 337 337 337 337 336 335 334 334 334 334 333 333 331 329 328 326 325 326 327 327 327 327 325 325 325 325 324 323 323 323 323 323 323 322 321 320 320 319 317 318 320 320 320 320 318 318 318 317 317 318 318 318 319 320 320 320 321 321 321 321 321 320 319 319 319 319 318 317 317 317 318 318 318 318 318
334 335 334 334 334 335 335 335 336 337 337 337 337 337 336 336 335 334 334 334 334 333 332 331 329 328 327 326 326 327 327 327 326 326 326 326 326 325 324 323 323 323 323 323 322 321 321 319 316 316 318 318 318 319 319 319 318 318 319 319 318 318 319 319 319 319 319 320 320 321 321 320 319 319 319 319 319 318 318 317 316 317 318 318 318
333 333 334 334 333 334 335 336 336 336 337 337 337 337 336 336 335 335 334 334 334 333 333 332 331 330 329 328 327 327 327 327 327 327 326 326 326 326 325 324 323 324 323 323 322 321 320 319 317 316 317 318 318 319 319 319 318 319 319 319 318 318 318 319 319 319 319 319 319 320 320 320 320 319 318 318 319 318 318 317 316 316 316 317 318
333 333 333 333 333 333 334 335 335 336 336 337 337 337 337 336 335 335 335 335 335 334 333 333 332 330 330 329 328 327 327 327 327 327 326 326 326 326 326 325 324 324 324 323 322 321 320 320 319 318 317 317 318 318 319 319 319 319 319 319 318 317 317 318 318 318 318 318 319 319 319 319 319 320 319 318 318 318 318 318 317 316 315 316 317
333 333 333 333 333 333 333 334 335 335 336 336 336 336 337 336 336 335 335 335 335 335 334 333 333 332 330 330 330 329 328 327 327 327 327 326 326 326 326 326 325 324 324 323 321 321 321 321 321 320 319 317 316 316 317 317 317 317 317 317 317 316 316 316 317 317 317 318 318 318 318 318 318 319 319 318 318 318 318 318 318 317 317 316 315
333 333 334 333 333 333 333 334 334 334 335 335 336 336 336 336 336 336 335 335 334 335 334 334 333 332 331 330 330 330 329 328 327 327 327 327 326 326 326 326 325 325 324 323 322 322 322 322 322 322 321 320 318 315 315 316 316 316 316 316 316 316 316 316 316 316 317 317 318 318 318 318 317 317 318 318 318 318 318 318 318 318 317 317 316
333 334 334 334 334 333 333 333 334 333 334 335 335 336 336 336 336 336 336 335 335 335 334 334 334 333 332 331 330 330 329 328 327 327 327 327 327 326 326 325 325 325 325 324 323 323 323 322 322 323 322 322 320 318 317 316 316 315 316 316 316 316 316 316 317 317 317 317 317 317 317 317 317 317 317 317 318 318 318 318 318 318 317 317 317
333 333 335 335 334 334 334 333 334 333 333 334 335 335 336 335 335 335 335 335 335 335 334 334 334 334 333 332 331 330 330 328 327 327 327 327 327 326 326 325 325 325 325 325 324 324 323 322 322 323 323 322 322 321 319 318 317 318 318 318 318 317 317 317 317 317 317 317 317 317 317 317 317 316 316 316 316 317 317 317 318 318 318 318 317
334 334 334 335 335 335 334 334 333 334 333 333 334 335 336 335 335 335 335 335 335 335 334 334 334 334 334 333 331 330 330 329 328 327 326 327 327 327 326 326 326 326 326 325 325 325 324 323 323 323 323 322 322 322 322 321 319 318 319 320 320 319 319 319 319 319 318 318 318 317 317 316 316 315 315 315 315 315 315 316 317 317 317 318 317
334 334 334 334 336 335 334 334 334 334 334 333 334 335 335 335 335 335 335 335 335 335 335 334 334 334 334 333 332 331 331 330 329 327 326 326 326 327 327 326 326 326 326 326 325 325 325 325 323 322 322 322 321 322 322 320 317 317 318 319 320 320 320 320 320 320 320 319 318 317 317 316 316 316 315 315 315 315 315 315 315 316 316 316 317
333 334 334 334 335 335 335 335 334 334 334 334 334 334 335 335 335 335 335 335 335 335 335 335 334 334 334 334 332 331 330 330 330 329 327 326 325 326 326 326 327 326 326 326 325 325 325 325 323 321 322 321 321 322 322 319 317 316 316 316 318 319 319 319 320 320 319 320 319 318 318 318 318 317 317 316 316 316 316 316 316 316 315 315 315
332 333 334 334 334 334 335 335 335 334 334 334 334 334 334 334 335 335 335 335 335 335 335 334 334 334 334 334 333 332 330 330 330 329 328 328 326 325 325 325 327 327 326 325 325 325 324 324 323 322 321 320 320 321 321 319 318 317 316 317 317 317 319 318 317 319 319 319 319 318 319 318 318 318 318 318 318 318 318 317 317 317 316 315 315
331 332 333 334 334 334 334 335 335 335 335 334 334 334 334 334 335 334 334 334 334 334 335 335 334 334 334 334 333 333 332 330 330 330 329 329 328 327 325 324 326 327 326 326 325 325 325 325 323 322 321 320 320 321 322 320 319 318 318 318 315 315 320 319 315 317 319 318 318 318 318 318 317 318 317 317 318 318 318 317 317 317 316 316 315
330 331 332 333 333 334 334 334 335 335 335 335 335 334 334 334 334 334 334 334 333 333 333 334 334 334 334 334 333 333 332 331 331 330 330 329 328 328 327 325 325 325 326 327 326 326 326 326 325 323 321 321 321 321 321 320 319 318 318 319 317 318 321 318 315 318 318 317 318 317 317 317 316 316 316 316 316 316 316 316 316 315 315 315 315
329 330 331 332 332 333 333 334 334 334 335 335 334 334 333 333 333 333 333 333 332 332 332 333 333 333 333 333 333 333 332 332 331 331 330 330 329 328 327 327 326 326 327 327 326 326 326 326 326 324 322 323 322 320 320 320 320 319 318 318 319 321 320 317 317 319 317 317 317 316 316 316 315 315 315 315 314 314 315 314 314 314 314 314 314
328 329 330 331 331 332 332 333 333 334 334 334 334 334 333 333 333 333 332 332 332 332 332 332 332 332 332 332 332 332 332 332 332 331 330 330 329 328 326 326 326 326 327 326 326 326 326 326 326 324 323 323 322 319 319 320 319 319 319 318 317 318 317 316 316 316 316 316 315 314 315 315 315 315 314 314 314 314 314 314 314 314 313 313 313
326 328 329 329 330 331 331 332 332 333 333 334 333 333 333 333 333 332 331 331 331 331 331 331 331 331 331 332 331 331 332 332 332 331 330 329 328 328 327 326 326 327 327 326 326 326 325 325 326 324 323 323 322 321 321 321 319 318 319 318 317 317 316 315 314 313 313 313 313 314 314 314 314 314 313 313 313 313 313 313 313 313 312 312 312
325 327 328 329 329 330 331 331 331 332 332 333 333 333 333 332 332 332 331 330 330 329 330 330 330 330 330 330 331 331 331 331 331 331 331 329 328 328 328 328 328 328 327 325 325 325 325 325 325 325 324 323 323 323 322 321 320 319 319 318 317 317 316 316 314 312 310 312 313 313 312 313 313 313 313 313 313 313 313 313 312 312 312 311 311
322 325 327 328 329 330 330 330 331 331 331 332 333 333 332 332 332 331 330 330 329 329 329 329 329 329 329 329 330 330 330 330 330 330 330 330 329 328 328 328 329 328 327 326 325 326 326 325 324 325 324 324 324 323 322 321 320 319 318 317 317 316 315 314 313 312 310 309 310 310 310 311 311 312 313 313 313 313 312 312 311 311 311 311 310
320 323 325 327 328 329 330 330 331 331 331 332 332 332 332 332 331 331 330 329 329 329 328 328 328 328 329 329 329 329 330 330 330 330 330 330 330 330 329 329 329 328 327 326 325 324 324 324 324 324 324 323 323 323 321 321 320 319 318 317 316 315 315 314 314 314 311 309 310 311 311 311 311 311 312 312 312 312 311 310 310 310 310 310 309
Wind_Speed
14 13 12 10 10 11 11 12 13 16 18 16 14 16 18 18 19 19 18 18 20 20 18 17 19 21 21 21 21 20 20 21 21 21 22 22 22 22 21 21 21 20 19 19 17 18 20 20 21 21 22 23 23 23 23 22 21 21 21 22 21 20 20 21 21 21 22 22 22 22 21 20 20 20 20 21 21 22 22 22 22 22 22 21 21
16 15 13 11 11 10 11 12 14 16 18 16 14 16 18 18 19 19 18 19 20 19 18 17 17 18 20 20 21 21 20 21 21 21 21 21 21 21 21 21 21 20 20 19 18 18 19 20 21 21 22 22 23 23 22 21 20 21 22 22 21 20 20 21 21 22 22 22 23 23 23 21 20 20 20 21 21 22 21 22 22 22 21 20 20
18 16 14 13 12 11 12 13 16 17 16 15 15 16 18 18 19 19 17 19 20 19 19 18 17 18 18 19 21 21 20 20 20 20 21 21 21 21 21 21 21 20 20 20 19 18 18 20 20 20 21 22 22 21 21 21 21 21 21 21 21 21 21 22 22 23 23 23 23 24 24 22 21 21 21 21 21 21 21 21 22 21 20 19 19
19 17 15 13 12 11 13 14 15 17 15 14 15 16 17 18 19 18 18 19 19 19 19 18 18 18 18 18 19 19 19 20 20 20 20 20 20 20 20 21 20 20 20 20 19 18 18 20 19 20 22 22 22 20 20 20 20 20 20 20 21 21 22 23 23 23 23 23 23 24 24 23 22 21 20 21 20 20 20 20 20 20 19 18 19
20 18 16 14 12 11 13 14 14 16 16 14 14 15 17 18 18 18 17 18 19 18 18 18 17 18 18 18 18 18 19 19 19 19 20 20 20 20 20 20 20 20 20 19 20 19 18 19 19 21 23 23 22 20 20 20 19 19 19 20 20 21 22 22 23 23 23 24 24 24 24 22 21 20 19 20 20 20 19 19 19 18 18 18 18
20 18 16 14 13 12 13 14 15 17 16 14 14 15 16 17 18 18 17 18 19 18 17 17 18 18 17 17 18 18 18 18 19 19 20 20 19 20 20 20 20 20 20 19 19 19 19 19 19 21 23 22 21 19 19 19 19 19 19 20 20 21 21 22 23 23 23 24 23 23 23 21 20 19 19 19 18 18 17 17 18 17 17 18 18
20 19 16 15 13 13 13 15 17 18 16 14 14 14 16 17 17 17 17 18 18 18 17 17 18 18 16 15 16 17 17 17 19 19 19 19 19 19 19 19 20 20 20 19 19 20 21 20 19 21 22 21 20 19 19 19 19 19 19 19 19 20 20 21 21 21 21 22 21 21 21 20 19 19 18 17 17 16 16 16 16 16 17 17 18
20 19 17 15 14 13 14 15 17 18 17 15 14 14 15 16 17 17 17 16 17 17 17 18 17 17 16 15 15 15 15 16 17 18 19 19 18 19 19 19 19 19 19 19 19 20 21 20 19 20 21 20 19 19 19 19 19 19 18 18 18 18 19 19 19 19 20 21 21 20 20 19 18 18 17 17 16 16 15 15 16 16 17 17 17
20 18 17 16 14 14 14 14 16 18 17 15 14 14 15 15 16 17 16 16 16 17 17 17 16 16 16 16 15 15 15 15 16 17 18 18 18 18 19 18 18 18 18 18 19 20 20 19 19 21 20 20 20 19 19 19 19 18 18 17 17 18 18 18 19 20 21 22 21 21 20 19 18 17 16 16 16 16 16 15 16 16 16 16 16
21 19 17 16 15 14 14 14 15 17 17 16 14 14 15 15 16 16 16 17 17 16 16 15 15 16 16 16 15 15 14 15 16 16 17 17 17 16 17 17 17 17 17 17 18 19 20 18 19 21 20 20 20 20 19 18 18 17 17 16 16 17 17 18 19 20 21 21 21 21 20 19 18 16 15 14 14 15 16 16 16 15 16 16 16
21 19 17 16 16 14 14 14 14 15 16 16 15 14 14 15 15 15 15 17 16 15 14 14 14 15 16 16 14 14 14 14 15 15 15 15 15 15 15 16 17 17 17 16 17 18 18 18 20 21 21 20 20 19 18 18 18 17 17 16 16 16 17 17 18 19 20 20 20 20 18 17 17 14 13 13 13 13 15 15 15 14 15 15 15
21 19 17 17 16 14 14 13 14 14 14 16 16 14 14 15 15 15 16 15 15 13 12 13 14 14 16 16 14 13 14 14 14 14 14 14 14 15 16 16 16 16 16 15 16 17 17 18 20 21 20 20 19 18 18 18 18 18 17 17 16 16 16 16 16 17 17 18 18 16 14 13 13 13 12 12 12 12 13 13 14 14 14 14 14
21 20 18 18 16 14 14 14 14 13 14 15 15 15 14 15 15 15 15 14 13 11 11 12 12 13 15 16 15 14 14 14 15 14 14 14 14 15 15 15 15 15 15 15 15 16 17 18 19 19 19 19 19 18 18 17 17 17 16 15 15 15 14 14 14 14 14 14 14 13 13 12 12 12 12 12 13 13 13 13 13 13 14 14 13
22 21 19 18 17 15 14 14 14 13 13 14 15 16 14 14 15 15 14 13 12 10 10 10 11 12 14 15 15 15 15 14 13 13 13 13 14 15 14 14 14 15 15 14 14 16 17 18 18 17 17 18 19 18 17 16 16 15 14 14 13 13 13 13 12 11 11 11 12 12 13 13 13 13 13 12 12 13 13 13 12 12 13 13 12
22 23 20 18 17 15 14 14 14 13 12 13 15 16 15 14 15 14 13 13 11 10 10 10 11 12 14 14 13 15 16 14 12 11 12 13 13 13 13 14 14 14 14 13 14 15 17 18 18 17 17 18 18 18 16 15 15 14 13 12 11 11 12 12 12 10 10 11 12 13 13 13 12 12 12 12 12 12 12 12 12 12 12 12 11
21 23 21 19 18 16 15 14 13 13 13 12 13 14 13 13 15 14 13 12 11 10 11 10 11 12 14 13 12 15 15 13 13 12 12 12 12 12 12 14 13 13 13 13 13 14 17 18 18 17 17 17 17 16 16 15 14 13 11 10 10 10 11 11 11 10 10 10 11 12 13 12 11 11 11 11 11 11 11 11 11 11 11 10 10
20 23 22 20 19 17 16 14 14 13 13 12 12 12 11 12 14 14 13 13 11 11 11 10 10 12 13 12 13 15 14 12 12 11 11 11 11 12 13 13 12 12 12 13 13 13 16 18 18 18 17 16 16 15 15 14 13 11 10 9 9 9 9 10 10 9 8 8 10 11 12 11 10 10 10 10 10 10 10 10 10 10 10 9 9
20 23 22 21 20 18 17 15 15 14 13 13 12 11 11 11 12 12 12 12 11 10 10 9 9 10 10 12 13 13 12 11 11 10 10 10 10 10 10 11 11 12 12 12 12 12 15 16 17 17 16 16 15 14 13 12 11 10 9 9 8 8 8 9 9 8 7 9 10 11 11 10 9 9 9 9 9 9 9 9 9 9 8 8 7
21 23 22 22 21 19 18 17 16 15 14 13 13 12 11 11 10 10 10 10 11 10 10 9 9 9 9 10 13 12 11 10 10 9 9 8 8 8 8 10 11 12 11 12 12 12 14 15 15 15 15 15 14 13 12 11 10 9 9 8 7 7 7 8 9 8 8 8 9 10 10 9 8 8 7 8 8 8 8 8 7 7 7 7 6
21 23 22 22 21 20 19 17 17 15 14 14 14 13 12 11 11 10 10 10 10 10 10 9 9 8 8 9 11 11 11 10 9 8 7 6 6 7 8 10 11 11 11 11 11 12 14 14 13 13 13 13 13 12 11 10 10 9 8 7 6 6 6 7 8 8 7 7 7 9 9 7 7 6 6 6 6 6 6 6 6 6 6 6 6
23 23 23 22 21 21 19 18 18 16 15 15 14 14 13 13 12 11 11 10 10 10 9 9 8 8 7 8 10 11 11 10 9 8 6 5 5 6 7 8 9 10 10 10 12 12 13 13 13 12 12 11 12 11 10 9 9 8 7 6 5 5 5 6 6 7 7 7 5 6 7 6 6 5 5 5 5 5 5 5 5 5 5 5 5
24 24 23 22 22 21 20 20 19 18 16 15 15 15 15 14 13 13 12 12 11 11 9 9 8 8 8 7 9 10 10 9 9 8 6 5 4 4 5 6 6 7 8 10 12 12 13 13 12 11 11 10 10 10 9 8 8 7 6 5 4 4 4 4 5 5 6 7 5 3 5 5 4 4 3 3 3 4 4 4 4 4 4 4 4
25 25 24 22 21 21 21 20 20 19 18 16 16 15 15 15 14 14 13 13 12 12 11 10 9 9 9 8 9 9 8 8 7 7 6 5 5 4 5 5 5 6 8 10 11 11 11 11 10 10 10 9 8 8 8 8 7 6 6 4 2 2 3 3 3 4 4 6 6 2 4 4 3 2 2 2 2 2 3 3 3 3 3 3 3
27 25 24 22 22 22 21 21 20 20 19 18 17 16 16 15 15 15 14 14 13 12 12 11 11 10 9 9 10 9 8 7 6 6 6 6 6 6 6 5 5 6 8 9 10 10 10 10 9 9 9 9 8 7 7 8 6 4 4 2 2 2 2 2 2 3 4 4 6 3 2 2 1 2 1 1 1 1 1 2 2 2 2 2 2
27 25 23 23 22 22 21 21 20 20 20 19 18 17 17 16 16 15 15 14 13 13 12 12 12 11 10 10 9 8 7 5 5 4 4 6 7 7 7 6 6 6 7 8 8 9 9 9 9 9 9 9 8 7 7 7 5 3 3 2 1 2 3 2 3 3 4 4 5 5 2 2 1 2 0 0 0 1 1 1 1 2 2 2 2
26 26 25 23 23 22 21 20 21 21 20 20 19 19 18 18 17 17 16 15 14 13 13 13 13 12 12 11 10 9 8 6 5 4 4 5 6 8 7 7 6 6 7 7 8 8 8 8 7 7 7 7 7 7 6 6 5 4 3 2 1 3 4 4 4 4 5 4 5 5 4 4 1 3 1 2 2 2 2 2 2 3 2 3 3
28 27 26 24 24 23 21 20 21 22 21 20 19 19 19 19 18 17 17 16 15 15 14 14 14 13 13 12 11 11 9 7 6 6 5 5 5 6 8 7 6 6 6 7 8 8 9 8 6 6 5 4 4 4 5 4 4 4 4 4 4 5 6 6 6 7 7 6 5 5 4 4 2 4 3 2 4 3 3 4 4 4 4 4 5
29 28 28 26 26 25 24 22 22 23 22 20 20 20 20 19 19 18 18 17 16 16 15 15 15 15 14 13 12 12 11 9 8 8 7 7 6 5 7 8 7 7 6 6 8 9 9 8 7 6 6 5 4 3 2 3 5 5 6 5 6 7 8 8 8 8 8 8 7 6 6 5 4 5 5 4 5 5 6 6 6 6 6 6 6
29 30 30 28 28 26 26 25 24 23 23 22 21 20 20 20 20 19 18 18 17 16 16 16 17 18 16 15 14 13 12 11 10 10 9 9 7 5 6 8 7 6 6 6 7 8 8 8 8 8 7 6 6 5 5 6 8 8 8 8 9 9 9 9 10 10 10 10 10 8 8 7 6 6 7 8 7 7 8 8 8 8 8 8 8
31 31 31 31 29 28 28 27 26 24 24 23 23 22 22 22 22 20 19 19 18 16 16 17 18 20 19 17 15 14 13 13 12 12 11 10 9 8 7 8 8 7 6 5 6 7 7 7 8 9 8 7 7 6 8 10 10 11 12 12 12 12 11 11 12 12 13 13 12 12 11 10 10 9 9 10 10 9 10 10 10 10 10 10 10
31 31 32 33 30 29 29 29 27 26 25 25 25 24 23 23 22 21 21 20 18 16 17 17 17 20 20 19 17 15 14 13 13 14 12 11 11 10 9 9 9 9 8 6 6 7 7 7 9 10 10 9 9 9 10 11 11 11 13 13 13 13 13 12 13 14 14 14 14 15 14 13 13 13 11 12 12 11 12 12 11 11 12 12 12
32 33 33 33 33 32 31 30 29 28 28 27 27 26 25 24 23 22 22 21 19 18 18 18 17 18 19 20 19 17 15 14 13 14 12 11 11 11 11 11 10 10 9 8 8 9 8 9 10 12 12 12 11 12 11 11 11 10 11 12 12 13 13 12 13 15 16 16 16 16 17 17 17 16 15 15 14 14 13 14 15 14 14 14 15
34 34 33 33 35 34 33 32 31 30 30 30 29 28 27 25 24 23 22 21 21 21 20 19 19 18 18 19 20 19 17 16 15 14 14 12 12 12 13 13 12 11 11 11 11 11 10 11 11 12 14 13 12 12 12 12 12 11 11 12 12 13 14 14 15 16 17 18 18 18 18 19 19 19 19 18 17 16 15 15 17 18 16 15 16
35 34 34 34 34 35 35 34 33 33 32 31 31 29 28 27 26 25 23 23 22 23 22 21 20 20 19 19 19 20 20 19 18 17 16 16 15 14 14 14 14 14 14 14 13 13 12 12 11 12 13 13 13 13 13 14 14 14 14 13 14 15 16 16 17 17 18 18 19 20 20 20 20 20 21 21 20 19 18 17 17 20 20 18 17
35 35 36 36 35 35 36 36 35 35 34 33 33 31 30 28 28 26 25 24 24 24 24 23 22 21 21 20 19 20 21 21 20 19 18 18 18 17 16 15 15 15 15 15 15 15 14 12 11 12 13 14 14 15 15 16 16 16 16 16 17 17 18 18 19 19 20 19 20 21 21 22 22 23 23 23 23 22 21 21 19 20 22 22 20
37 37 37 37 36 36 36 37 37 37 36 35 34 33 31 30 29 28 27 26 26 26 25 25 24 23 22 22 21 21 22 23 22 21 19 19 19 20 18 15 15 15 15 16 16 15 14 12 12 12 13 15 16 17 17 17 18 19 18 18 18 18 18 19 19 20 20 21 21 22 23 24 24 25 25 25 25 25 24 24 24 23 23 25 24
38 38 38 38 38 38 38 38 38 38 37 37 36 34 33 32 31 29 28 28 27 28 27 26 26 25 25 25 24 22 23 24 24 23 21 20 19 20 19 17 16 15 15 15 16 15 14 14 13 13 14 15 16 17 17 16 17 17 17 17 17 17 18 19 20 20 21 22 23 24 24 25 25 26 27 27 27 28 27 27 27 27 26 27 28
37 38 39 39 39 39 39 39 38 38 38 38 37 36 34 33 32 31 30 29 29 29 28 28 28 27 27 27 26 24 23 23 24 25 24 21 18 18 19 18 17 16 15 15 15 15 15 15 15 14 14 15 16 16 16 15 14 15 16 17 17 18 19 20 21 21 22 24 25 25 26 26 26 26 27 28 29 30 30 31 31 31 30 29 30
37 37 38 38 38 39 39 39 39 38 38 38 37 37 35 33 32 32 31 31 31 30 30 30 29 29 29 29 28 26 25 24 23 24 24 23 19 18 18 19 18 17 16 16 15 17 18 18 17 16 16 15 15 15 15 15 15 16 17 19 20 21 22 22 23 24 25 26 26 27 27 27 27 27 28 29 30 31 32 33 33 34 34 34 33
37 37 36 37 38 38 39 39 40 39 38 37 37 37 36 34 33 33 33 34 33 32 32 31 30 30 30 29 29 28 27 26 24 23 24 24 22 20 18 18 19 18 19 18 18 18 18 19 19 19 18 16 16 15 14 15 17 18 19 22 22 22 23 24 24 25 26 26 27 28 28 29 28 28 28 28 28 29 30 32 33 34 35 36 36
36 37 36 36 38 38 39 40 40 39 38 38 38 38 37 36 35 36 36 36 35 34 34 33 32 32 30 29 29 28 28 29 27 24 23 24 24 23 21 20 21 21 22 22 21 19 18 19 20 19 18 17 17 16 15 16 17 17 19 22 23 24 23 23 24 24 25 25 25 26 26 26 27 27 26 26 26 27 28 29 31 33 35 36 37
36 37 38 38 38 38 40 40 40 40 40 40 39 39 39 38 38 38 38 36 36 36 35 35 34 32 31 30 29 28 27 29 30 28 25 23 23 24 24 23 23 23 23 23 21 20 19 21 21 20 19 19 19 17 16 15 14 14 15 15 19 21 18 17 18 18 17 17 17 19 21 23 24 23 21 22 23 24 25 25 27 29 31 33 34
37 38 39 39 38 38 39 40 41 42 42 41 41 40 40 40 38 37 36 35 35 35 35 34 33 32 32 31 30 30 28 28 29 29 27 25 24 24 24 24 25 25 24 23 22 21 22 22 23 23 21 20 19 18 17 16 15 14 10 8 8 10 10 9 11 12 12 14 15 16 18 20 20 19 20 22 23 23 24 24 26 28 29 30 31
36 37 38 38 38 38 39 40 41 42 43 43 43 42 40 38 37 35 34 33 33 33 33 33 33 33 33 33 32 31 30 28 28 28 28 28 27 25 22 22 25 26 25 24 23 23 23 23 24 24 22 20 19 19 18 17 18 15 7 3 1 3 5 5 10 16 16 14 15 16 18 19 20 20 21 24 25 25 26 26 27 28 29 30 30
36 38 39 40 40 40 41 41 42 42 43 43 43 42 39 37 35 32 29 29 29 28 30 34 35 34 35 35 34 32 31 30 29 28 28 28 27 26 23 22 24 25 26 25 24 24 24 24 24 25 23 21 21 20 18 17 18 18 13 6 2 2 3 5 11 16 16 15 17 19 20 18 19 22 23 24 26 26 27 28 29 30 31 31 30
36 38 40 41 41 41 42 42 41 42 43 43 43 42 40 38 36 33 30 29 29 30 35 37 37 36 36 35 34 32 31 30 30 29 28 27 26 26 25 26 25 25 26 24 22 23 23 23 24 25 24 22 21 20 19 18 17 19 20 18 15 11 9 8 6 7 16 22 20 18 19 20 23 25 24 26 28 28 29 30 32 32 32 32 31
38 39 39 40 41 40 41 41 41 41 42 43 42 42 40 39 39 39 37 35 33 36 39 37 35 35 34 33 33 32 31 30 29 29 27 26 26 25 22 22 23 23 23 22 21 20 20 21 23 25 23 20 20 20 20 20 18 18 20 22 24 24 21 14 6 4 10 17 20 23 25 26 26 26 26 28 29 30 32 32 33 34 33 32 32
39 38 37 38 40 40 40 41 41 41 41 41 41 42 41 40 40 40 39 38 37 36 35 32 32 32 31 32 32 31 31 29 28 28 27 25 25 24 22 22 24 23 20 20 20 18 17 20 22 21 20 18 20 21 21 21 19 19 20 19 20 22 24 22 18 13 7 7 15 23 25 25 25 28 29 29 31 32 34 35 35 34 34 34 33
37 36 38 38 38 39 39 39 40 40 40 40 41 42 42 41 40 39 38 37 37 33 29 28 28 29 29 31 31 30 29 28 27 27 26 24 22 22 23 25 27 23 19 18 18 19 20 21 19 17 18 19 19 19 20 21 21 22 20 19 19 19 20 21 21 19 12 8 8 9 15 21 24 31 32 30 32 34 36 36 35 35 34 34 34
33 33 35 36 36 36 36 37 38 39 39 39 40 41 41 40 39 38 37 34 32 30 26 25 25 26 28 29 29 29 28 27 26 25 24 23 22 21 21 22 22 21 20 19 19 21 21 18 17 18 21 22 20 18 18 20 21 22 21 20 20 18 16 14 13 14 13 12 9 8 15 17 16 24 29 28 31 33 35 37 36 36 35 35 35
28 29 30 32 33 34 35 36 37 37 38 38 39 40 40 40 39 37 36 33 30 29 27 25 24 25 27 28 28 27 26 25 24 24 22 21 22 22 21 21 19 18 18 18 18 18 17 16 18 21 22 22 20 17 18 19 20 21 21 20 20 19 16 13 14 17 15 12 10 10 16 17 16 21 24 24 26 30 35 37 36 36 36 35 34
Wind_Direction
157 142 140 134 123 114 108 110 112 116 112 110 109 109 112 108 104 101 99 98 96 92 88 83 78 79 81 80 79 79 78 76 75 74 75 75 75 75 75 75 75 76 78 77 75 76 77 78 79 80 80 80 78 78 79 77 76 75 73 70 71 76 80 83 84 83 83 81 79 77 74 73 73 72 73 74 75 77 78 78 77 76 75 74 74
155 146 142 134 128 119 118 116 117 117 113 115 111 113 114 110 106 100 100 99 98 94 91 87 81 84 85 81 78 80 80 78 78 77 76 77 77 76 75 75 76 76 78 80 79 78 77 77 78 80 82 82 80 78 78 76 76 76 73 70 71 75 80 83 84 84 84 84 84 83 79 75 74 74 75 75 75 75 76 77 76 75 76 76 76
149 145 141 136 131 121 120 117 117 115 112 116 113 115 116 113 108 104 102 98 100 97 92 91 89 88 86 83 80 82 81 79 80 79 79 79 78 77 77 76 77 77 78 80 81 80 79 78 78 79 81 82 79 76 77 78 78 77 73 69 72 76 79 81 81 82 82 82 83 83 81 77 76 76 76 75 75 75 76 76 76 76 76 76 75
147 143 141 138 131 122 122 121 120 119 115 114 113 115 116 115 108 106 105 100 101 98 95 93 92 89 87 86 83 82 82 83 82 81 82 82 81 80 80 78 78 78 79 80 80 82 83 82 82 82 85 85 81 79 80 82 80 77 73 71 75 78 79 80 81 82 83 83 83 82 81 78 76 75 76 76 76 77 78 77 77 76 75 73 73
149 144 144 140 131 126 125 128 123 120 116 113 114 113 116 114 109 109 107 103 103 101 98 95 94 92 91 89 86 85 85 86 84 85 86 84 83 83 82 81 80 79 79 79 80 83 87 86 84 86 90 88 86 85 84 83 80 78 76 76 79 81 81 82 83 83 84 84 83 83 82 80 78 75 75 76 77 78 77 77 77 76 74 73 72
151 146 144 140 133 126 125 127 121 119 116 114 115 113 117 114 112 112 108 106 106 102 98 97 97 95 93 92 93 92 89 89 87 88 88 85 85 84 83 83 82 81 80 80 81 83 90 90 87 91 91 90 90 87 86 83 81 79 78 81 84 84 84 86 87 85 85 85 84 83 82 81 80 78 76 76 77 77 76 76 76 76 75 74 71
151 146 144 141 136 127 125 125 123 125 120 117 117 115 118 117 117 115 111 109 107 105 102 101 100 97 93 93 95 94 93 91 91 92 92 90 89 87 86 85 84 83 81 82 82 84 93 92 90 95 93 91 91 88 86 85 83 80 80 84 86 86 87 89 87 84 83 85 84 83 82 81 78 76 74 74 76 77 76 76 77 75 73 72 70
151 147 146 143 137 130 128 127 127 130 123 118 120 118 119 121 121 118 115 112 110 110 105 103 102 98 94 96 96 94 94 92 93 96 97 95 93 93 91 89 87 86 85 85 84 88 95 94 94 98 94 91 90 90 88 86 83 80 82 86 87 88 88 88 85 83 82 83 84 82 81 79 76 73 72 73 74 77 78 78 76 73 70 67 68
152 149 147 145 139 134 132 131 130 133 128 123 126 124 123 124 125 123 122 117 113 111 106 105 104 102 97 99 100 96 96 95 95 98 99 97 93 93 93 91 89 88 89 89 89 94 97 96 98 99 96 93 90 90 90 86 82 80 83 88 89 90 88 87 86 84 83 83 83 81 79 77 76 73 71 71 70 69 70 69 68 68 69 67 67
154 151 151 147 141 139 135 134 133 138 137 130 128 129 125 125 127 126 126 120 115 111 110 110 109 108 103 102 106 102 101 99 98 100 99 97 95 93 92 91 91 91 92 93 93 100 103 98 99 100 98 94 92 90 90 88 85 83 84 88 91 91 90 89 89 86 85 85 83 80 76 75 74 71 65 65 68 66 62 62 64 66 70 71 71
156 154 153 149 144 142 138 137 134 137 141 135 129 131 128 125 128 127 127 124 119 118 117 117 113 113 108 105 109 107 105 104 101 101 99 96 96 95 95 95 95 95 95 96 99 106 107 103 102 101 99 96 95 93 90 88 86 84 84 87 89 89 90 89 89 88 88 86 84 81 79 75 72 68 61 62 68 69 67 68 71 73 74 75 74
158 157 155 151 147 145 142 139 136 133 137 139 134 135 135 129 129 130 129 127 125 126 122 119 116 116 114 110 111 108 105 105 103 102 101 96 96 99 101 99 99 98 98 99 101 109 111 109 107 103 101 99 97 95 91 89 87 86 86 87 87 87 87 87 87 89 88 87 86 84 82 78 73 70 66 68 70 72 75 75 75 77 78 79 79
160 161 159 155 151 149 147 142 140 135 135 140 137 136 138 134 131 131 130 129 129 130 124 122 122 121 120 118 117 115 110 108 107 108 106 103 103 104 105 103 102 101 100 101 102 111 119 118 113 108 105 102 99 97 94 90 88 88 88 87 86 86 85 84 84 87 89 89 88 84 77 71 71 73 72 74 74 74 78 77 75 77 79 80 81
162 165 162 158 153 152 151 146 143 138 137 140 138 139 141 138 133 134 132 132 136 137 129 126 127 125 126 125 123 125 126 122 120 121 116 111 111 110 110 109 107 106 105 104 104 111 123 128 122 115 110 107 103 100 97 93 91 89 87 83 80 79 78 76 76 83 90 91 88 83 78 73 71 73 74 76 77 77 77 77 78 80 80 80 79
165 167 163 160 155 156 155 150 146 142 141 140 142 144 146 144 141 140 138 140 146 145 133 130 128 126 130 128 126 132 137 137 136 133 122 117 118 116 116 115 113 111 111 110 109 111 123 129 126 120 117 113 108 104 101 99 98 93 86 79 74 72 66 63 64 72 84 87 83 78 78 78 75 75 77 79 81 81 79 80 83 85 82 79 78
169 168 164 162 158 158 158 154 150 147 145 144 145 145 146 148 147 148 149 149 150 148 139 134 129 127 132 131 131 137 141 145 143 136 127 124 123 123 124 120 117 116 116 116 114 114 122 126 124 121 120 117 113 107 103 101 100 95 89 81 75 68 60 58 61 67 76 81 78 77 80 81 81 81 82 84 86 86 85 87 88 88 85 82 81
172 170 167 165 162 161 161 159 154 151 150 149 148 145 144 144 146 150 152 149 146 147 144 138 131 128 133 136 138 141 143 147 144 138 133 131 127 128 127 124 121 120 120 118 117 115 121 125 123 123 122 119 116 110 105 103 100 95 90 83 76 67 60 54 56 67 76 84 85 84 87 87 86 85 87 88 90 90 90 92 92 92 89 86 85
174 174 171 169 166 164 164 162 159 156 155 154 153 150 147 146 145 144 144 142 139 140 142 138 136 133 133 138 144 146 147 149 147 143 137 133 130 128 127 125 122 119 118 118 118 116 121 125 125 126 125 123 119 114 111 109 105 99 93 87 80 70 60 47 49 65 81 93 92 88 85 83 84 84 86 88 89 91 91 94 96 93 90 87 87
176 178 176 175 170 168 168 166 165 161 160 158 158 156 153 154 150 146 142 139 137 137 140 138 139 141 140 143 150 153 154 154 151 147 142 137 133 126 123 123 119 118 119 119 118 118 123 126 126 128 128 127 122 118 117 114 107 99 94 88 82 72 58 48 51 66 83 91 91 90 87 82 82 82 84 86 86 87 89 92 95 94 86 85 86
178 182 180 181 176 173 173 172 170 167 167 163 161 161 158 159 157 157 153 148 145 143 142 142 142 145 147 149 154 159 161 161 158 155 151 142 131 118 118 122 120 120 121 121 121 123 128 129 128 129 130 129 125 123 120 115 109 100 93 85 79 66 54 50 55 66 76 75 78 91 95 91 86 86 89 91 90 88 91 94 96 94 87 87 85
180 185 184 186 182 179 179 178 175 172 173 170 167 165 162 165 165 164 163 162 159 153 150 148 148 149 153 154 157 161 162 166 168 168 164 150 130 111 111 117 118 119 120 122 125 129 132 133 133 132 132 132 131 129 123 116 113 107 97 89 80 62 53 46 47 60 62 55 61 90 104 103 95 92 93 96 98 97 102 103 102 102 97 92 86
181 186 187 190 188 186 185 184 181 177 178 178 175 171 168 170 171 170 169 171 169 164 160 154 153 150 153 157 160 162 162 165 170 172 171 159 141 117 108 108 111 112 113 120 128 132 135 138 139 139 137 137 137 137 133 124 118 116 106 92 74 54 47 40 40 48 46 39 40 84 105 95 90 90 90 98 104 107 111 114 115 113 110 103 96
181 185 188 191 193 192 190 189 186 182 182 183 183 180 176 174 175 176 174 175 175 172 167 161 157 149 148 151 155 160 159 161 167 174 176 171 160 142 125 117 119 117 119 126 132 136 139 142 145 145 142 141 141 142 145 140 131 130 122 100 56 31 26 26 30 31 25 28 27 44 99 94 99 91 82 98 106 110 115 128 128 127 131 123 115
182 184 185 189 195 196 196 196 192 188 187 188 190 189 185 181 180 180 180 180 179 177 173 170 164 158 156 153 152 154 154 156 160 171 182 184 177 164 155 147 144 137 136 137 139 142 142 145 148 147 144 140 138 138 147 152 152 150 143 121 32 349 346 5 5 6 359 10 14 12 97 136 154 117 100 106 129 146 135 152 158 158 163 145 144
184 183 186 190 193 196 198 198 198 195 192 192 194 196 194 189 186 185 185 185 184 182 179 177 173 172 172 166 162 161 161 163 161 172 187 188 188 184 175 171 171 159 151 150 149 148 146 148 149 150 147 142 138 137 140 149 160 177 188 174 356 302 288 313 326 333 334 339 348 352 352 294 264 140 161 314 199 240 216 212 214 209 213 208 207
186 187 191 194 195 195 197 197 200 200 197 197 196 199 201 197 193 191 191 190 190 189 186 184 182 181 183 180 177 176 180 187 190 200 200 185 189 195 192 188 188 180 169 166 163 156 153 153 153 155 155 153 150 147 148 152 164 189 217 224 262 281 271 278 295 301 306 311 317 328 336 332 304 188 236 292 269 269 253 250 249 251 256 246 251
188 193 195 198 200 198 199 200 201 203 201 199 200 201 204 205 201 198 198 198 196 196 194 191 190 188 190 192 190 189 190 200 215 219 210 191 182 191 197 194 184 181 178 175 174 168 163 164 165 168 171 176 173 167 167 173 192 214 237 248 261 276 273 270 279 286 292 295 299 305 311 329 299 231 216 266 272 270 263 263 261 263 273 268 259
192 194 196 200 203 202 203 205 205 207 205 200 203 206 206 208 207 205 205 205 205 205 202 197 195 196 198 201 201 198 197 210 226 228 219 203 187 181 190 187 170 166 176 181 182 178 177 182 186 189 192 203 217 221 226 245 251 253 258 261 264 270 272 268 271 277 283 287 288 291 292 304 302 259 220 229 257 262 267 262 259 264 269 275 269
199 198 197 200 205 205 205 207 208 209 210 205 205 209 210 210 209 209 208 208 211 211 209 203 198 199 203 207 206 201 204 219 233 234 222 209 199 190 193 190 179 179 188 196 197 189 191 201 210 211 207 212 223 232 249 262 264 266 264 263 265 268 272 270 269 271 275 280 281 281 283 286 292 276 243 236 241 250 262 255 250 255 258 267 269
204 204 201 201 205 207 206 208 210 211 213 210 209 212 212 212 211 211 209 209 212 212 212 208 202 202 206 209 209 206 212 224 232 232 223 214 210 206 208 205 199 205 212 219 220 213 211 220 231 234 231 230 232 238 246 251 253 256 258 260 264 268 271 270 270 269 270 274 277 277 280 280 283 281 262 253 249 244 250 248 248 253 255 258 260
206 207 206 204 204 207 209 209 211 213 214 214 214 214 214 215 213 213 211 211 213 210 212 214 207 205 208 211 212 211 217 226 228 229 226 220 220 218 217 217 213 215 224 235 239 240 241 248 255 251 250 250 250 253 251 249 248 249 253 257 261 265 266 268 268 268 268 269 272 274 277 279 280 279 271 265 261 253 249 246 246 252 257 256 255
209 210 211 208 206 207 210 211 213 214 214 215 215 215 217 217 215 215 214 214 214 213 213 216 213 209 209 212 216 216 217 224 224 225 227 226 230 229 225 226 225 224 230 239 244 248 252 261 261 250 249 252 252 254 255 256 258 255 253 256 260 263 265 270 271 271 270 268 268 270 272 276 277 277 274 270 267 264 259 249 243 244 253 258 256
211 212 213 212 210 209 210 212 213 214 215 215 216 217 220 219 218 220 219 217 216 217 216 217 218 216 213 214 219 220 218 222 224 224 227 230 236 236 235 234 233 234 238 243 246 249 253 260 256 244 243 249 251 255 259 264 267 267 265 266 267 267 269 272 273 274 274 271 269 268 270 273 274 275 273 271 268 266 265 258 248 241 244 255 258
211 212 213 214 213 211 211 213 213 215 216 216 217 219 221 221 221 222 223 221 219 221 221 221 222 221 220 220 220 222 221 223 226 228 230 232 236 238 239 238 237 239 241 244 246 249 254 257 253 247 247 253 257 259 261 264 267 268 269 270 272 273 274 272 272 273 273 271 269 268 271 273 273 274 273 271 268 266 264 262 256 248 243 247 255
211 211 213 214 214 213 213 214 215 216 216 217 219 220 221 221 221 222 223 224 224 225 224 224 225 224 225 225 224 225 225 225 227 230 232 232 234 236 238 239 238 239 242 245 246 249 254 255 254 255 256 258 260 261 262 264 266 267 268 270 273 276 275 273 274 273 273 273 269 269 272 274 273 274 275 273 270 267 265 263 262 257 251 248 251
212 212 213 214 215 215 214 214 215 216 217 217 219 221 221 221 221 223 224 225 226 226 227 227 228 228 228 228 229 230 228 227 226 229 231 231 232 235 237 237 236 239 243 244 245 248 252 254 255 257 260 260 261 263 262 263 265 268 270 271 274 276 275 275 275 275 276 275 272 271 272 274 274 274 275 275 273 271 268 266 266 264 260 255 253
213 213 213 213 214 215 214 215 216 216 217 218 219 221 221 221 222 223 225 226 227 228 229 229 230 231 231 231 232 234 232 228 227 231 232 232 232 233 236 236 234 238 244 246 246 249 253 254 255 259 263 263 263 263 264 264 267 271 274 276 278 279 278 279 280 281 279 276 274 274 274 276 276 275 275 275 274 274 272 270 269 269 268 263 258
214 215 214 214 214 214 214 215 216 217 218 218 219 220 221 222 223 225 226 227 229 230 231 231 232 233 233 233 233 236 235 231 231 235 236 235 233 231 233 235 235 240 247 248 248 252 254 254 255 260 263 266 267 268 271 274 277 281 284 285 286 284 284 284 284 283 280 277 276 276 277 278 277 277 276 275 274 274 275 274 273 272 271 268 264
215 216 216 216 215 215 215 215 216 217 218 219 219 219 220 221 223 225 226 228 230 231 232 233 234 234 235 234 235 237 236 234 234 236 238 237 233 229 230 232 236 243 249 249 250 253 252 251 254 258 261 265 270 275 281 285 287 288 291 291 290 287 287 286 284 283 281 279 279 278 278 278 278 278 277 276 275 274 275 275 275 275 274 272 270
215 216 216 216 216 214 214 214 215 216 216 216 216 216 216 217 219 221 223 225 227 229 232 234 235 236 236 234 234 236 236 236 235 235 237 237 236 234 232 233 236 242 247 247 249 251 252 255 256 258 262 265 268 274 281 284 282 283 287 288 289 289 288 287 284 283 283 282 282 281 280 280 279 279 279 278 277 275 275 275 275 276 276 275 274
216 216 215 215 216 214 212 212 213 213 213 213 212 212 212 212 214 217 219 222 224 226 230 232 235 237 237 235 234 234 235 236 237 237 236 236 239 240 238 237 237 241 244 245 247 250 256 262 261 260 264 266 268 272 275 275 275 278 284 289 292 294 292 290 287 286 286 286 285 284 285 286 285 284 284 283 281 278 277 277 277 277 276 276 276
216 215 215 216 216 214 213 212 212 211 212 213 212 212 213 212 213 215 218 221 223 225 227 231 233 236 237 237 236 236 236 235 236 238 238 238 239 240 242 243 244 244 244 244 246 250 256 260 259 259 261 261 262 268 271 268 265 271 284 297 303 303 299 294 291 290 287 285 286 289 294 295 293 294 294 290 286 285 284 283 283 282 280 279 278
217 216 216 216 215 214 213 213 213 212 213 213 213 214 215 216 216 218 219 221 224 227 229 232 234 236 237 238 238 238 238 237 236 237 237 240 241 240 240 244 247 245 243 242 243 247 254 257 257 256 256 257 259 265 267 262 257 263 282 298 308 321 315 301 293 291 291 290 288 292 299 300 298 299 298 294 292 290 290 290 289 288 286 284 283
216 216 216 216 214 214 214 214 214 215 214 214 216 217 218 217 217 220 222 223 227 229 231 234 236 236 236 237 238 238 239 239 237 237 237 240 243 239 238 243 247 248 247 245 245 248 252 255 257 255 253 254 258 265 266 260 254 252 260 276 306 343 305 305 317 308 303 297 291 295 301 298 297 296 293 292 291 290 289 288 287 286 287 289 289
215 216 216 215 215 215 215 216 216 216 216 217 218 218 216 215 215 217 221 223 226 228 228 231 232 233 234 235 235 236 238 238 239 239 240 241 241 239 241 243 242 245 247 247 250 253 254 256 258 256 253 254 258 264 267 265 257 249 243 246 293 335 267 309 325 312 305 297 293 296 297 298 300 298 295 293 292 291 289 287 285 286 287 289 290
217 218 218 217 217 216 216 216 216 217 217 219 219 217 215 213 212 212 213 215 217 221 224 226 226 228 230 232 234 236 237 238 240 242 242 241 240 241 245 245 242 244 246 248 252 255 255 255 257 256 255 257 260 260 264 270 270 260 251 248 254 256 264 300 323 305 301 298 296 298 298 302 304 299 296 297 296 294 294 292 289 290 290 289 289
219 220 220 219 218 217 217 216 216 217 217 218 218 216 214 213 213 214 214 214 215 220 224 226 226 226 228 230 233 235 236 238 241 242 243 243 243 243 245 246 246 247 247 249 251 253 256 257 259 259 257 259 261 259 264 272 273 269 264 258 256 256 262 274 279 282 300 298 296 298 298 300 303 301 300 300 299 298 298 297 295 294 293 293 293
220 219 219 220 219 218 218 217 217 217 217 217 217 216 214 214 215 216 218 218 219 223 225 226 228 229 230 231 234 235 236 237 240 242 243 244 245 244 242 242 242 242 246 253 255 254 256 259 262 262 260 262 262 263 268 272 270 269 272 269 265 264 264 265 267 268 272 289 294 296 296 299 303 302 301 300 300 301 300 300 299 298 297 297 296
218 218 219 220 220 219 218 218 218 218 217 217 217 217 217 216 217 217 219 221 223 225 227 228 229 230 233 234 235 236 237 237 238 240 242 243 244 242 243 246 245 242 245 254 258 255 255 257 261 261 259 259 259 265 271 272 271 270 272 273 273 274 273 271 269 263 258 267 282 290 295 301 301 298 298 299 301 302 301 301 300 299 297 297 296
218 218 219 220 220 219 219 219 219 219 218 218 217 218 218 218 218 219 220 223 224 225 227 229 229 230 233 235 235 235 237 238 237 238 240 242 243 241 242 246 247 245 246 251 256 257 257 258 260 258 257 257 258 265 273 274 276 275 274 274 273 274 277 279 277 271 266 266 268 273 283 288 288 290 295 297 299 302 301 300 299 297 296 296 297
221 220 219 219 219 219 219 219 221 220 219 219 218 219 219 219 220 221 221 222 223 223 224 226 227 228 230 233 233 234 236 238 236 236 236 238 243 242 242 242 242 243 246 249 252 254 252 250 254 257 258 259 261 268 276 277 275 273 272 273 272 275 277 279 285 286 276 266 272 279 283 287 284 285 293 296 297 298 298 298 296 296 297 297 297